Current weather by "City, St" or "zip code"  
 
Advertise Here

Current Conditions: Terre Haute Regional Airport, IN

Fair


73.0 F

Last Updated on Aug 4 2020, 6:53 pm EDT
Humidity: 50%
Wind Speed: NW 12.7 mph
Barometer 30.04 in
Dewpoint: 53.1 F
Visibility: 10.00 mi
Precip: --
Heat Index: NA
Wind Chill: NA
Current conditions at:

Terre Haute Regional Airport, IN (KHUF)

Lat: 39.4429 Lon: 87.32207

Local Radar Image active severe weather and emergency alerts image image weather storm and storm spotter reports image weather observation monitoring service image
Local
Radar
Active
Alerts
Storm Reports Obs
Monitoring

Sign-up For Email & Text Message Weather Alert Notification Services


Advertise Here

Observation History for Terre Haute Regional Airport, IN


Time Wind
(mph)
Vis
(mi)
Weather Precip (in) Temperature (F) Relative
Humidity
Wind
Chill
(F)
Heat
Index
(F)
Pressure
Air Dwpt altimeter
(in)
sea level
(mb)
Rmks
6:53 pm EDT NW 12.7 10.00 Fair -- 73.0 53.1 50% NA NA 30.04 1017.1
5:53 pm EDT NW 10.4 G 20.7 10.00 Mostly Cloudy -- 74.0 57.0 56% NA NA 30.05 1017.1
4:53 pm EDT N 13.8 G 20.7 10.00 Partly Cloudy -- 76.0 57.0 52% NA NA 30.05 1017.1
3:53 pm EDT NW 11.5 10.00 Partly Cloudy -- 76.0 55.9 50% NA NA 30.05 1017.1
2:53 pm EDT NW 8.1 10.00 Partly Cloudy -- 75.0 59.0 58% NA NA 30.04 1016.9
1:53 pm EDT NW 6.9 10.00 Partly Cloudy -- 75.0 60.1 60% NA NA 30.04 1016.9
12:53 pm EDT N 8.1 10.00 Partly Cloudy -- 73.0 61.0 66% NA NA 30.04 1016.7
11:53 am EDT NE 5.8 10.00 Mostly Cloudy -- 73.0 62.1 69% NA NA 30.04 1016.6
10:53 am EDT N 6.9 10.00 Overcast -- 71.0 66.0 84% NA NA 30.03 1016.5
9:53 am EDT NW 8.1 10.00 Mostly Cloudy -- 66.0 62.1 87% NA NA 30.03 1016.5
8:53 am EDT N 6.9 10.00 Partly Cloudy -- 65.0 62.1 90% NA NA 30.02 1016.2
7:53 am EDT N 5.8 10.00 Partly Cloudy -- 62.0 60.1 93% 62 NA 30.01 1015.8
6:53 am EDT N 4.6 10.00 Mostly Cloudy -- 62.0 60.1 93% 62 NA 30.00 1015.7
5:53 am EDT NW 9.2 10.00 Overcast -- 63.0 61.0 93% 62 NA 30.00 1015.5
4:53 am EDT N 5.8 10.00 Overcast -- 64.0 62.1 93% NA NA 29.98 1015.0
3:53 am EDT N 4.6 10.00 Mostly Cloudy -- 64.0 62.1 93% NA NA 29.98 1014.9
2:53 am EDT N 8.1 10.00 Fair -- 64.0 62.1 93% NA NA 29.98 1014.9
1:53 am EDT N 5.8 10.00 Partly Cloudy -- 65.0 63.0 93% NA NA 29.99 1015.2
12:53 am EDT N 4.6 10.00 Overcast -- 67.0 64.0 91% NA NA 29.99 1015.1
11:53 pm EDT NW 5.8 10.00 Overcast -- 68.0 64.0 87% NA NA 29.99 1015.1
10:53 pm EDT NW 5.8 10.00 Overcast Trace 68.0 64.9 90% NA NA 29.99 1015.2
9:53 pm EDT NW 3.5 9.00 Light Rain 00.03 69.0 66.9 93% NA NA 29.99 1015.2
8:53 pm EDT N 0.0 8.00 Overcast -- 72.0 71.1 97% NA NA 29.98 1014.7
7:53 pm EDT N 0.0 10.00 Partly Cloudy Trace 73.0 71.1 94% NA NA 29.97 1014.6

Regional Weather Observation


Terre Haute Regional Airport, IN (KHUF)

Fair
73.0 F

Robinson Municipal Airport, IL (KRSV)

Partly Cloudy
72.0 F

Mattoon / Charleston, Coles County Memorial Airport, IL (KMTO)

A Few Clouds
72.0 F

Danville, Vermilion County Airport, IL (KDNV)

Partly Cloudy
72.0 F

Bloomington, Monroe County Airport, IN (KBMG)

Fair
75.0 F

University of Illinois - Willard, IL (KCMI)

Mostly Cloudy
73.0 F